• Em Portugal
  • Lista de países
  • Para 7 dias
  • Temperatura da água
  • Mapas de satélite
  • Mapa do tempo
  • Widgets de tempo
  • user-avatar
    Iniciar Sessão

    Previsão horária em Zandzhan

    Hoje, 23 Janeiro, Terça-feira

    Tempo Temperatura Precipitação Vento Pressão Humidade
    00:00 -1°C° 0 mm 3 m/s 610 mmHg 46%
    01:00 -1°C° 0 mm 3 m/s 610 mmHg 46%
    02:00 -1°C° 0 mm 3 m/s 610 mmHg 46%
    03:00 -2°C° 0 mm 3 m/s 610 mmHg 51%
    04:00 -2°C° 0 mm 3 m/s 610 mmHg 51%
    05:00 -2°C° 0 mm 3 m/s 610 mmHg 51%
    06:00 -2°C° 0 mm 3 m/s 610 mmHg 51%
    07:00 -1°C° 0 mm 3 m/s 610 mmHg 49%
    08:00 0°C° 0 mm 3 m/s 611 mmHg 48%
    09:00 +1°C° 0 mm 3 m/s 611 mmHg 47%
    10:00 +2°C° 0 mm 3 m/s 611 mmHg 43%
    11:00 +3°C° 0 mm 4 m/s 611 mmHg 40%
    12:00 +5°C° 0 mm 4 m/s 611 mmHg 37%
    13:00 +5°C° 0 mm 4 m/s 611 mmHg 38%
    14:00 +5°C° 0 mm 4 m/s 611 mmHg 39%
    15:00 +6°C° 0 mm 4 m/s 611 mmHg 40%
    16:00 +4°C° 0 mm 3 m/s 610 mmHg 44%
    17:00 +3°C° 0 mm 3 m/s 610 mmHg 48%
    18:00 +2°C° 0 mm 3 m/s 610 mmHg 52%
    19:00 +2°C° 0,3 mm 3 m/s 610 mmHg 59%
    20:00 +3°C° 0,3 mm 2 m/s 610 mmHg 65%
    21:00 +3°C° 0,3 mm 2 m/s 610 mmHg 72%
    22:00 +2°C° 0,3 mm 2 m/s 610 mmHg 75%
    23:00 +2°C° 0,3 mm 2 m/s 610 mmHg 78%

    Amanhã, 24 Janeiro, Quarta-feira

    Tempo Temperatura Precipitação Vento Pressão Humidade
    00:00 +2°C° 0,3 mm 2 m/s 610 mmHg 81%
    01:00 +1°C° 0,1 mm 2 m/s 610 mmHg 81%
    02:00 +1°C° 0,1 mm 2 m/s 610 mmHg 81%
    03:00 +1°C° 0,1 mm 2 m/s 610 mmHg 81%
    04:00 -1°C° 0 mm 2 m/s 610 mmHg 81%
    05:00 -1°C° 0 mm 2 m/s 610 mmHg 81%
    06:00 -1°C° 0 mm 2 m/s 610 mmHg 82%
    07:00 -1°C° 0 mm 2 m/s 611 mmHg 78%
    08:00 +1°C° 0 mm 2 m/s 612 mmHg 74%
    09:00 +2°C° 0 mm 2 m/s 612 mmHg 70%
    10:00 +3°C° 0 mm 2 m/s 612 mmHg 65%
    11:00 +3°C° 0 mm 3 m/s 613 mmHg 60%
    12:00 +4°C° 0 mm 3 m/s 613 mmHg 55%
    13:00 +4°C° 0 mm 3 m/s 613 mmHg 54%
    14:00 +5°C° 0 mm 3 m/s 613 mmHg 52%
    15:00 +5°C° 0 mm 3 m/s 613 mmHg 51%
    16:00 +5°C° 0 mm 2 m/s 613 mmHg 55%
    17:00 +3°C° 0 mm 2 m/s 612 mmHg 59%
    18:00 +3°C° 0 mm 1 m/s 612 mmHg 63%
    19:00 +3°C° 0 mm 1 m/s 612 mmHg 64%
    20:00 +2°C° 0 mm 1 m/s 612 mmHg 65%
    21:00 +2°C° 0 mm 1 m/s 612 mmHg 67%
    22:00 +2°C° 0 mm 1 m/s 612 mmHg 66%
    23:00 +2°C° 0 mm 1 m/s 613 mmHg 66%

    Depois de amanhã, 25 Janeiro, Quinta-feira

    Tempo Temperatura Precipitação Vento Pressão Humidade
    00:00 +2°C° 0 mm 1 m/s 613 mmHg 66%
    01:00 +2°C° 0 mm 1 m/s 613 mmHg 66%
    02:00 +2°C° 0 mm 1 m/s 613 mmHg 67%
    03:00 +1°C° 0 mm 1 m/s 613 mmHg 67%
    04:00 +1°C° 0 mm 1 m/s 613 mmHg 68%
    05:00 +1°C° 0 mm 1 m/s 613 mmHg 69%
    06:00 +1°C° 0 mm 1 m/s 613 mmHg 70%
    07:00 +2°C° 0 mm 1 m/s 613 mmHg 68%
    08:00 +2°C° 0 mm 2 m/s 614 mmHg 66%
    09:00 +3°C° 0 mm 2 m/s 615 mmHg 64%
    10:00 +4°C° 0 mm 2 m/s 615 mmHg 60%
    11:00 +5°C° 0 mm 2 m/s 614 mmHg 56%
    12:00 +5°C° 0 mm 3 m/s 614 mmHg 53%
    13:00 +5°C° 0 mm 3 m/s 614 mmHg 52%
    14:00 +5°C° 0 mm 3 m/s 614 mmHg 51%
    15:00 +5°C° 0 mm 3 m/s 614 mmHg 50%
    16:00 +4°C° 0 mm 3 m/s 614 mmHg 57%
    17:00 +3°C° 0 mm 3 m/s 613 mmHg 63%
    18:00 +2°C° 0 mm 2 m/s 613 mmHg 70%
    19:00 +2°C° 0 mm 2 m/s 613 mmHg 74%
    20:00 0°C° 0 mm 3 m/s 613 mmHg 77%
    21:00 0°C° 0 mm 3 m/s 613 mmHg 81%
    22:00 +1°C° 0 mm 2 m/s 613 mmHg 82%
    23:00 +1°C° 0 mm 2 m/s 613 mmHg 83%

    26 Janeiro, Sexta-feira

    Tempo Temperatura Precipitação Vento Pressão Humidade
    00:00 -1°C° 0 mm 2 m/s 613 mmHg 84%
    01:00 -1°C° 0,1 mm 2 m/s 613 mmHg 84%
    02:00 -1°C° 0,1 mm 2 m/s 613 mmHg 83%
    03:00 -1°C° 0,1 mm 2 m/s 613 mmHg 83%
    04:00 -1°C° 0,1 mm 2 m/s 613 mmHg 83%
    05:00 -1°C° 0,1 mm 2 m/s 612 mmHg 83%
    06:00 -1°C° 0,1 mm 2 m/s 612 mmHg 83%
    07:00 0°C° 0 mm 3 m/s 612 mmHg 79%
    08:00 +1°C° 0 mm 3 m/s 613 mmHg 75%
    09:00 +1°C° 0 mm 3 m/s 613 mmHg 70%
    10:00 +1°C° 0 mm 4 m/s 613 mmHg 65%
    11:00 +3°C° 0 mm 5 m/s 613 mmHg 59%
    12:00 +4°C° 0 mm 6 m/s 613 mmHg 54%
    13:00 +5°C° 0,3 mm 5 m/s 612 mmHg 56%
    14:00 +3°C° 0,3 mm 5 m/s 612 mmHg 59%
    15:00 +3°C° 0,3 mm 5 m/s 611 mmHg 61%
    16:00 +3°C° 0,3 mm 4 m/s 611 mmHg 66%
    17:00 +1°C° 0,3 mm 4 m/s 611 mmHg 71%
    18:00 +1°C° 0,3 mm 3 m/s 611 mmHg 76%
    19:00 +1°C° 0,2 mm 3 m/s 611 mmHg 79%
    20:00 0°C° 0,2 mm 3 m/s 611 mmHg 82%
    21:00 +1°C° 0,2 mm 2 m/s 611 mmHg 85%
    22:00 +1°C° 0,2 mm 2 m/s 611 mmHg 85%
    23:00 +1°C° 0,2 mm 2 m/s 611 mmHg 85%

    27 Janeiro, Sábado

    Tempo Temperatura Precipitação Vento Pressão Humidade
    00:00 +1°C° 0,2 mm 2 m/s 611 mmHg 86%
    01:00 -1°C° 0,5 mm 2 m/s 611 mmHg 87%
    02:00 -1°C° 0,5 mm 2 m/s 610 mmHg 89%
    03:00 -1°C° 0,5 mm 2 m/s 610 mmHg 90%
    04:00 -2°C° 0,7 mm 3 m/s 610 mmHg 91%
    05:00 -2°C° 0,7 mm 3 m/s 610 mmHg 91%
    06:00 -2°C° 0,7 mm 3 m/s 610 mmHg 92%
    07:00 -2°C° 1,7 mm 3 m/s 610 mmHg 93%
    08:00 -2°C° 1,7 mm 3 m/s 610 mmHg 94%
    09:00 -2°C° 1,7 mm 3 m/s 610 mmHg 95%
    10:00 -2°C° 1 mm 3 m/s 610 mmHg 94%
    11:00 -2°C° 1 mm 3 m/s 610 mmHg 94%
    12:00 -2°C° 1 mm 3 m/s 610 mmHg 93%
    13:00 -3°C° 0,8 mm 4 m/s 609 mmHg 93%
    14:00 -3°C° 0,8 mm 4 m/s 609 mmHg 92%
    15:00 -4°C° 0,8 mm 4 m/s 609 mmHg 91%
    16:00 -4°C° 0,4 mm 4 m/s 610 mmHg 92%
    17:00 -5°C° 0,4 mm 4 m/s 610 mmHg 92%
    18:00 -5°C° 0,4 mm 4 m/s 610 mmHg 92%
    19:00 -7°C° 0,2 mm 4 m/s 610 mmHg 92%
    20:00 -6°C° 0,2 mm 3 m/s 610 mmHg 92%
    21:00 -6°C° 0,2 mm 3 m/s 611 mmHg 92%
    22:00 -7°C° 0,4 mm 3 m/s 611 mmHg 92%
    23:00 -7°C° 0,4 mm 3 m/s 611 mmHg 93%

    28 Janeiro, Domingo

    Tempo Temperatura Precipitação Vento Pressão Humidade
    00:00 -7°C° 0,4 mm 3 m/s 611 mmHg 93%
    01:00 -7°C° 0,2 mm 3 m/s 611 mmHg 93%
    02:00 -8°C° 0,2 mm 3 m/s 612 mmHg 92%
    03:00 -8°C° 0,2 mm 3 m/s 612 mmHg 92%
    04:00 -8°C° 0,1 mm 3 m/s 612 mmHg 92%
    05:00 -9°C° 0,1 mm 3 m/s 612 mmHg 92%
    06:00 -9°C° 0,1 mm 3 m/s 613 mmHg 92%
    07:00 -9°C° 0,1 mm 3 m/s 613 mmHg 91%
    08:00 -8°C° 0,1 mm 3 m/s 614 mmHg 89%
    09:00 -8°C° 0,1 mm 3 m/s 614 mmHg 87%
    10:00 -8°C° 0,1 mm 4 m/s 614 mmHg 85%
    11:00 -8°C° 0,1 mm 4 m/s 615 mmHg 83%
    12:00 -7°C° 0,1 mm 4 m/s 615 mmHg 81%
    13:00 -7°C° 0,1 mm 4 m/s 615 mmHg 81%
    14:00 -7°C° 0,1 mm 4 m/s 615 mmHg 80%
    15:00 -7°C° 0,1 mm 4 m/s 615 mmHg 79%
    16:00 -7°C° 0 mm 3 m/s 615 mmHg 82%
    17:00 -8°C° 0 mm 3 m/s 614 mmHg 85%
    18:00 -9°C° 0 mm 2 m/s 614 mmHg 87%
    19:00 -9°C° 0 mm 2 m/s 614 mmHg 88%
    20:00 -10°C° 0 mm 2 m/s 614 mmHg 89%
    21:00 -10°C° 0 mm 2 m/s 614 mmHg 90%
    22:00 -10°C° 0 mm 2 m/s 614 mmHg 90%
    23:00 -12°C° 0 mm 2 m/s 614 mmHg 90%
    Mostrar mais